When you browse on this site, cookies collect data to enhance your experience and personalize the content and advertising you see.
Visit our Privacy Policy to learn more. By continuing to use the site, you agree to this use of cookies and data.
  • In Austria
  • List of Countries
  • For 7 days
  • Water Temperature
  • Weather Map
  • News
  • Weather Widgets
  • user-avatar
    Login

    Hourly Weather Samos

    Today, 21 January, Tuesday

    Time Temperature Precipitation Wind Pressure Humidity
    00:00 -3°C° 0 mm 9 mps 734 mmHg 81%
    01:00 -3°C° 0 mm 9 mps 733 mmHg 81%
    02:00 -3°C° 0 mm 9 mps 733 mmHg 81%
    03:00 -4°C° 0 mm 9 mps 733 mmHg 81%
    04:00 -4°C° 0 mm 9 mps 733 mmHg 81%
    05:00 -4°C° 0 mm 9 mps 733 mmHg 80%
    06:00 -4°C° 0 mm 9 mps 733 mmHg 79%
    07:00 -4°C° 0 mm 9 mps 733 mmHg 79%
    08:00 -5°C° 0 mm 8 mps 733 mmHg 78%
    09:00 -3°C° 0 mm 9 mps 733 mmHg 71%
    10:00 -1°C° 0 mm 9 mps 733 mmHg 65%
    11:00 0°C° 0 mm 9 mps 733 mmHg 59%
    12:00 +1°C° 0 mm 9 mps 732 mmHg 57%
    13:00 +2°C° 0 mm 9 mps 732 mmHg 55%
    14:00 +2°C° 0 mm 9 mps 732 mmHg 54%
    15:00 +2°C° 0 mm 9 mps 731 mmHg 57%
    16:00 +1°C° 0 mm 9 mps 731 mmHg 60%
    17:00 +1°C° 0 mm 9 mps 731 mmHg 63%
    18:00 0°C° 0 mm 9 mps 731 mmHg 67%
    19:00 -1°C° 0 mm 9 mps 731 mmHg 70%
    20:00 -2°C° 0 mm 8 mps 731 mmHg 74%
    21:00 -3°C° 0 mm 9 mps 730 mmHg 76%
    22:00 -3°C° 0 mm 9 mps 730 mmHg 78%
    23:00 -4°C° 0 mm 9 mps 730 mmHg 80%

    Tomorrow, 22 January, Wednesday

    Time Temperature Precipitation Wind Pressure Humidity
    00:00 -4°C° 0 mm 9 mps 730 mmHg 81%
    01:00 -4°C° 0 mm 8 mps 729 mmHg 82%
    02:00 -5°C° 0 mm 8 mps 729 mmHg 83%
    03:00 -5°C° 0 mm 8 mps 729 mmHg 83%
    04:00 -5°C° 0 mm 8 mps 728 mmHg 83%
    05:00 -5°C° 0 mm 8 mps 728 mmHg 83%
    06:00 -5°C° 0 mm 8 mps 728 mmHg 81%
    07:00 -5°C° 0 mm 8 mps 728 mmHg 79%
    08:00 -4°C° 0 mm 8 mps 728 mmHg 78%
    09:00 -2°C° 0 mm 7 mps 728 mmHg 70%
    10:00 0°C° 0 mm 7 mps 728 mmHg 62%
    11:00 +2°C° 0 mm 6 mps 728 mmHg 55%
    12:00 +4°C° 0 mm 6 mps 728 mmHg 51%
    13:00 +5°C° 0 mm 6 mps 727 mmHg 47%
    14:00 +7°C° 0 mm 6 mps 727 mmHg 43%
    15:00 +7°C° 0 mm 6 mps 726 mmHg 46%
    16:00 +5°C° 0 mm 6 mps 726 mmHg 49%
    17:00 +4°C° 0 mm 6 mps 726 mmHg 52%
    18:00 +5°C° 0 mm 5 mps 726 mmHg 53%
    19:00 +3°C° 0 mm 5 mps 726 mmHg 54%
    20:00 +2°C° 0 mm 5 mps 725 mmHg 55%
    21:00 +1°C° 0 mm 5 mps 725 mmHg 55%
    22:00 +1°C° 0 mm 4 mps 725 mmHg 56%
    23:00 +1°C° 0 mm 4 mps 725 mmHg 56%

    Day after tomorrow, 23 January, Thursday

    Time Temperature Precipitation Wind Pressure Humidity
    00:00 0°C° 0 mm 4 mps 725 mmHg 57%
    01:00 0°C° 0 mm 4 mps 725 mmHg 57%
    02:00 0°C° 0 mm 4 mps 724 mmHg 58%
    03:00 0°C° 0 mm 4 mps 724 mmHg 58%
    04:00 0°C° 0 mm 4 mps 724 mmHg 58%
    05:00 -1°C° 0 mm 4 mps 724 mmHg 59%
    06:00 -1°C° 0 mm 4 mps 724 mmHg 59%
    07:00 0°C° 0 mm 4 mps 724 mmHg 59%
    08:00 0°C° 0 mm 4 mps 724 mmHg 59%
    09:00 +1°C° 0 mm 4 mps 724 mmHg 55%
    10:00 +4°C° 0 mm 4 mps 724 mmHg 51%
    11:00 +6°C° 0 mm 5 mps 724 mmHg 46%
    12:00 +7°C° 0 mm 5 mps 724 mmHg 43%
    13:00 +8°C° 0 mm 5 mps 724 mmHg 40%
    14:00 +9°C° 0 mm 5 mps 724 mmHg 36%
    15:00 +8°C° 0 mm 6 mps 725 mmHg 42%
    16:00 +6°C° 0 mm 7 mps 725 mmHg 47%
    17:00 +5°C° 0 mm 8 mps 725 mmHg 53%
    18:00 +3°C° 0 mm 9 mps 726 mmHg 57%
    19:00 +2°C° 0 mm 9 mps 726 mmHg 60%
    20:00 +1°C° 0 mm 9 mps 727 mmHg 64%
    21:00 0°C° 0 mm 9 mps 727 mmHg 65%
    22:00 -1°C° 0 mm 9 mps 728 mmHg 66%
    23:00 -1°C° 0 mm 9 mps 728 mmHg 67%

    24 January, Friday

    Time Temperature Precipitation Wind Pressure Humidity
    00:00 -3°C° 0 mm 9 mps 728 mmHg 68%
    01:00 -4°C° 0 mm 8 mps 728 mmHg 70%
    02:00 -4°C° 0 mm 8 mps 728 mmHg 71%
    03:00 -5°C° 0 mm 8 mps 728 mmHg 71%
    04:00 -5°C° 0 mm 8 mps 729 mmHg 71%
    05:00 -4°C° 0 mm 7 mps 729 mmHg 71%
    06:00 -4°C° 0 mm 7 mps 729 mmHg 67%
    07:00 -4°C° 0 mm 7 mps 729 mmHg 63%
    08:00 -4°C° 0 mm 6 mps 729 mmHg 59%
    09:00 -3°C° 0 mm 6 mps 730 mmHg 54%
    10:00 -1°C° 0 mm 6 mps 730 mmHg 48%
    11:00 +2°C° 0 mm 6 mps 730 mmHg 43%
    12:00 +3°C° 0 mm 6 mps 730 mmHg 41%
    13:00 +4°C° 0 mm 6 mps 729 mmHg 40%
    14:00 +6°C° 0 mm 5 mps 729 mmHg 38%
    15:00 +5°C° 0 mm 5 mps 729 mmHg 41%
    16:00 +5°C° 0 mm 5 mps 729 mmHg 44%
    17:00 +3°C° 0 mm 5 mps 729 mmHg 47%
    18:00 +2°C° 0 mm 5 mps 729 mmHg 48%
    19:00 +1°C° 0 mm 5 mps 729 mmHg 49%
    20:00 0°C° 0 mm 5 mps 729 mmHg 51%
    21:00 0°C° 0 mm 5 mps 729 mmHg 51%
    22:00 -1°C° 0 mm 4 mps 729 mmHg 51%
    23:00 -1°C° 0 mm 4 mps 729 mmHg 51%

    25 January, Saturday

    Time Temperature Precipitation Wind Pressure Humidity
    00:00 -1°C° 0 mm 4 mps 729 mmHg 50%
    01:00 -2°C° 0 mm 4 mps 729 mmHg 50%
    02:00 -1°C° 0 mm 3 mps 728 mmHg 49%
    03:00 -1°C° 0 mm 3 mps 728 mmHg 48%
    04:00 -1°C° 0 mm 3 mps 728 mmHg 48%
    05:00 -1°C° 0 mm 3 mps 728 mmHg 47%
    06:00 -1°C° 0 mm 3 mps 728 mmHg 46%
    07:00 -1°C° 0 mm 3 mps 729 mmHg 46%
    08:00 -1°C° 0 mm 2 mps 729 mmHg 45%
    09:00 +2°C° 0 mm 2 mps 729 mmHg 41%
    10:00 +4°C° 0 mm 2 mps 729 mmHg 37%
    11:00 +7°C° 0 mm 1 mps 730 mmHg 33%
    12:00 +8°C° 0 mm 1 mps 729 mmHg 33%
    13:00 +9°C° 0 mm 1 mps 729 mmHg 33%
    14:00 +10°C° 0 mm 1 mps 728 mmHg 33%
    15:00 +9°C° 0 mm 1 mps 728 mmHg 38%
    16:00 +8°C° 0 mm 1 mps 729 mmHg 43%
    17:00 +7°C° 0 mm 1 mps 729 mmHg 48%
    18:00 +6°C° 0 mm 1 mps 729 mmHg 49%
    19:00 +5°C° 0 mm 1 mps 729 mmHg 51%
    20:00 +5°C° 0 mm 1 mps 729 mmHg 53%
    21:00 +5°C° 0 mm 1 mps 729 mmHg 54%
    22:00 +3°C° 0 mm 2 mps 729 mmHg 56%
    23:00 +3°C° 0 mm 2 mps 729 mmHg 57%

    26 January, Sunday

    Time Temperature Precipitation Wind Pressure Humidity
    00:00 +2°C° 0 mm 3 mps 729 mmHg 57%
    01:00 +2°C° 0 mm 3 mps 729 mmHg 58%
    02:00 +1°C° 0 mm 4 mps 729 mmHg 58%
    03:00 +1°C° 0 mm 4 mps 729 mmHg 58%
    04:00 +1°C° 0 mm 4 mps 729 mmHg 58%
    05:00 +1°C° 0 mm 5 mps 729 mmHg 58%
    06:00 +1°C° 0 mm 4 mps 729 mmHg 59%
    07:00 +1°C° 0 mm 4 mps 730 mmHg 60%
    08:00 +1°C° 0 mm 4 mps 730 mmHg 61%
    09:00 +4°C° 0 mm 4 mps 730 mmHg 59%
    10:00 +6°C° 0 mm 4 mps 730 mmHg 58%
    11:00 +8°C° 0 mm 5 mps 731 mmHg 56%
    12:00 +10°C° 0 mm 4 mps 730 mmHg 56%
    13:00 +11°C° 0 mm 4 mps 730 mmHg 56%
    14:00 +11°C° 0 mm 4 mps 730 mmHg 56%
    15:00 +11°C° 0 mm 4 mps 729 mmHg 60%
    16:00 +10°C° 0 mm 4 mps 729 mmHg 63%
    17:00 +8°C° 0 mm 4 mps 729 mmHg 67%
    18:00 +8°C° 0 mm 4 mps 729 mmHg 70%
    19:00 +7°C° 0 mm 4 mps 729 mmHg 73%
    20:00 +7°C° 0 mm 3 mps 729 mmHg 76%
    21:00 +6°C° 0 mm 4 mps 729 mmHg 77%
    22:00 +5°C° 0 mm 4 mps 729 mmHg 78%
    23:00 +5°C° 0 mm 4 mps 729 mmHg 79%
    Show more